Weather History for Southern Pines, NC

Change the Weather History Date:

Friday, April 4, 2014

  Actual Average Record
Temperature  
Mean Temperature 72 °F -  
Max Temperature 84 °F 68 °F 87 °F (1999)
Min Temperature 59 °F 46 °F 39 °F (2013)
Cooling Degree Days 6    
Growing Degree Days 22 (Base 50)    
Moisture  
Dew Point 51 °F    
Average Humidity 51    
Maximum Humidity 77    
Minimum Humidity 27    
Precipitation  
Precipitation 0.00 in - - ()
Sea Level Pressure  
Sea Level Pressure 29.86 in    
Wind  
Wind Speed 12 mph (SW)    
Max Wind Speed 24 mph    
Max Gust Speed 34 mph    
Visibility 10 miles    
Events      
Averages and records for this station are not official NWS values.
T = Trace of Precipitation, MM = Missing Value Source: NWS Daily Summary

Daily Weather History Graph

Daily Weather History Graph

Search for Another Location

Airport:

Trip Planner

Search our weather history database for the weather conditions in past years. The results will help you decide how hot, cold, wet, or windy it might be!

Date:

Astronomy

Apr. 04, 2014 Rise Set
Actual Time 7:00 AM EDT 7:41 PM EDT
Civil Twilight 6:34 AM EDT 8:07 PM EDT
Nautical Twilight 6:04 AM EDT 8:37 PM EDT
Astronomical Twilight 5:33 AM EDT 9:08 PM EDT
Moon 10:23 AM EDT (4/4) No Moon Set
Length of Visible Light 13h 32m
Length of Day
12h 41m
Waxing Crescent, 25% of the Moon is Illuminated
Apr 4
Waxing Crescent
Apr 7
First Quarter
Apr 15
Full
Apr 22
Last Quarter
Apr 29
New

Hourly Weather History & Observations

Time (EDT) Temp. Heat Index Dew Point Humidity Pressure Visibility Wind Dir Wind Speed Gust Speed Precip Events Conditions
12:15 AM 69.8 °F - 44.6 °F 40% 29.92 in 10.0 mi SW 12.7 mph - N/A   Clear
12:35 AM 66.2 °F - 46.4 °F 49% 29.92 in 10.0 mi SW 9.2 mph - N/A   Clear
12:55 AM 66.2 °F - 46.4 °F 49% 29.92 in 10.0 mi SW 9.2 mph - N/A   Clear
1:15 AM 66.2 °F - 48.2 °F 52% 29.92 in 10.0 mi SSW 11.5 mph - N/A   Clear
1:35 AM 66.2 °F - 48.2 °F 52% 29.91 in 10.0 mi SW 12.7 mph - N/A   Clear
1:55 AM 66.2 °F - 48.2 °F 52% 29.91 in 10.0 mi SW 11.5 mph 17.3 mph N/A   Clear
2:15 AM 64.4 °F - 50.0 °F 59% 29.91 in 10.0 mi WSW 10.4 mph - N/A   Clear
2:35 AM 64.4 °F - 50.0 °F 59% 29.91 in 10.0 mi SW 10.4 mph - N/A   Clear
2:55 AM 64.4 °F - 50.0 °F 59% 29.91 in 10.0 mi WSW 10.4 mph - N/A   Clear
3:15 AM 64.4 °F - 50.0 °F 59% 29.91 in 10.0 mi SW 10.4 mph - N/A   Clear
3:35 AM 64.4 °F - 51.8 °F 64% 29.90 in 10.0 mi SW 13.8 mph - N/A   Clear
3:55 AM 64.4 °F - 51.8 °F 64% 29.89 in 10.0 mi SW 10.4 mph 18.4 mph N/A   Clear
4:15 AM 64.4 °F - 51.8 °F 64% 29.88 in 10.0 mi SW 10.4 mph - N/A   Clear
4:35 AM 64.4 °F - 51.8 °F 64% 29.88 in 10.0 mi WSW 9.2 mph - N/A   Clear
4:55 AM 62.6 °F - 51.8 °F 68% 29.88 in 10.0 mi SW 10.4 mph 16.1 mph N/A   Clear
5:15 AM 62.6 °F - 51.8 °F 68% 29.88 in 10.0 mi SW 9.2 mph - N/A   Clear
5:35 AM 62.6 °F - 51.8 °F 68% 29.88 in 10.0 mi SW 12.7 mph - N/A   Clear
5:55 AM 60.8 °F - 51.8 °F 72% 29.88 in 10.0 mi SW 11.5 mph - N/A   Clear
6:15 AM 60.8 °F - 50.0 °F 68% 29.88 in 10.0 mi SW 9.2 mph - N/A   Clear
6:35 AM 60.8 °F - 50.0 °F 68% 29.88 in 10.0 mi SW 10.4 mph - N/A   Clear
6:55 AM 60.8 °F - 50.0 °F 68% 29.88 in 10.0 mi SW 11.5 mph - N/A   Clear
7:15 AM 59.0 °F - 51.8 °F 77% 29.88 in 10.0 mi SW 11.5 mph - N/A   Clear
7:35 AM 60.8 °F - 51.8 °F 72% 29.89 in 10.0 mi SW 12.7 mph - N/A   Clear
7:55 AM 60.8 °F - 51.8 °F 72% 29.90 in 10.0 mi SW 11.5 mph - N/A   Clear
8:15 AM 60.8 °F - 51.8 °F 72% 29.89 in 10.0 mi SW 9.2 mph - N/A   Clear
8:35 AM 62.6 °F - 51.8 °F 68% 29.90 in 10.0 mi SW 11.5 mph - N/A   Clear
8:55 AM 62.6 °F - 51.8 °F 68% 29.90 in 10.0 mi SW 11.5 mph - N/A   Clear
9:15 AM 66.2 °F - 53.6 °F 64% 29.90 in 10.0 mi SW 13.8 mph - N/A   Clear
9:35 AM 66.2 °F - 51.8 °F 60% 29.89 in 10.0 mi SW 12.7 mph - N/A   Clear
9:55 AM 66.2 °F - 53.6 °F 64% 29.89 in 10.0 mi SW 8.1 mph - N/A   Clear
10:15 AM 66.2 °F - 53.6 °F 64% 29.90 in 10.0 mi SSW 8.1 mph - N/A   Clear
10:35 AM 68.0 °F - 53.6 °F 60% 29.90 in 10.0 mi SSW 9.2 mph - N/A   Clear
10:55 AM 69.8 °F - 53.6 °F 56% 29.90 in 10.0 mi SSW 9.2 mph - N/A   Clear
11:15 AM 71.6 °F - 51.8 °F 50% 29.90 in 10.0 mi SSW 11.5 mph - N/A   Clear
11:35 AM 73.4 °F - 51.8 °F 47% 29.90 in 10.0 mi SSW 18.4 mph - N/A   Clear
11:55 AM 73.4 °F - 50.0 °F 44% 29.90 in 10.0 mi SSW 17.3 mph 20.7 mph N/A   Clear
12:15 PM 75.2 °F - 50.0 °F 41% 29.90 in 10.0 mi SW 16.1 mph 23.0 mph N/A   Clear
12:35 PM 77.0 °F - 46.4 °F 34% 29.89 in 10.0 mi SW 13.8 mph 25.3 mph N/A   Clear
12:55 PM 78.8 °F - 46.4 °F 32% 29.89 in 10.0 mi WSW 21.9 mph 26.5 mph N/A   Partly Cloudy
1:15 PM 78.8 °F - 46.4 °F 32% 29.88 in 10.0 mi SW 20.7 mph 24.2 mph N/A   Partly Cloudy
1:35 PM 80.6 °F - 46.4 °F 30% 29.87 in 10.0 mi WSW 15.0 mph 26.5 mph N/A   Partly Cloudy
1:55 PM 80.6 °F - 44.6 °F 28% 29.87 in 10.0 mi SW 20.7 mph 28.8 mph N/A   Partly Cloudy
2:15 PM 80.6 °F - 44.6 °F 28% 29.87 in 10.0 mi WSW 17.3 mph 34.5 mph N/A   Partly Cloudy
2:55 PM 84.2 °F - 46.4 °F 27% 29.84 in 10.0 mi SW 18.4 mph 23.0 mph N/A   Clear
3:15 PM 82.4 °F - 46.4 °F 28% 29.84 in 10.0 mi WSW 24.2 mph 33.4 mph N/A   Clear
3:35 PM 82.4 °F - 48.2 °F 30% 29.83 in 10.0 mi WSW 21.9 mph 29.9 mph N/A   Clear
3:55 PM 84.2 °F - 50.0 °F 30% 29.83 in 10.0 mi SW 23.0 mph 33.4 mph N/A   Clear
4:15 PM 82.4 °F - 51.8 °F 35% 29.82 in 10.0 mi WSW 15.0 mph 23.0 mph N/A   Clear
4:35 PM 82.4 °F - 51.8 °F 35% 29.81 in 10.0 mi West 15.0 mph 23.0 mph N/A   Clear
4:55 PM 82.4 °F 81.4 °F 53.6 °F 37% 29.81 in 10.0 mi WSW 13.8 mph 27.6 mph N/A   Clear
5:15 PM 82.4 °F 81.4 °F 53.6 °F 37% 29.80 in 10.0 mi SW 15.0 mph 23.0 mph N/A   Clear
5:35 PM 80.6 °F 80.3 °F 53.6 °F 39% 29.79 in 10.0 mi SW 17.3 mph 27.6 mph N/A   Clear
5:55 PM 78.8 °F - 53.6 °F 42% 29.78 in 10.0 mi WSW 11.5 mph 19.6 mph N/A   Clear
6:15 PM 78.8 °F - 53.6 °F 42% 29.78 in 10.0 mi SW 16.1 mph - N/A   Clear
6:35 PM 78.8 °F - 53.6 °F 42% 29.78 in 10.0 mi SW 17.3 mph 23.0 mph N/A   Clear
6:55 PM 78.8 °F - 51.8 °F 39% 29.76 in 10.0 mi SSW 12.7 mph 20.7 mph N/A   Clear
7:15 PM 77.0 °F - 51.8 °F 41% 29.77 in 10.0 mi SW 12.7 mph - N/A   Clear
7:35 PM 75.2 °F - 51.8 °F 44% 29.77 in 10.0 mi SW 13.8 mph 20.7 mph N/A   Clear
7:55 PM 75.2 °F - 51.8 °F 44% 29.77 in 10.0 mi SW 12.7 mph - N/A   Clear
8:15 PM 75.2 °F - 51.8 °F 44% 29.77 in 10.0 mi SW 10.4 mph 18.4 mph N/A   Clear
8:35 PM 75.2 °F - 51.8 °F 44% 29.78 in 10.0 mi SW 10.4 mph - N/A   Clear
8:55 PM 73.4 °F - 51.8 °F 47% 29.78 in 10.0 mi SSW 9.2 mph - N/A   Clear
9:15 PM 73.4 °F - 51.8 °F 47% 29.78 in 10.0 mi SSW 9.2 mph - N/A   Clear
9:35 PM 73.4 °F - 51.8 °F 47% 29.79 in 10.0 mi SSW 10.4 mph - N/A   Clear
9:55 PM 73.4 °F - 51.8 °F 47% 29.79 in 10.0 mi SSW 12.7 mph - N/A   Clear
10:15 PM 73.4 °F - 51.8 °F 47% 29.80 in 10.0 mi SW 12.7 mph - N/A   Clear
10:35 PM 73.4 °F - 53.6 °F 50% 29.80 in 10.0 mi SW 17.3 mph 21.9 mph N/A   Clear
10:55 PM 73.4 °F - 53.6 °F 50% 29.80 in 10.0 mi SW 17.3 mph 20.7 mph N/A   Clear
11:15 PM 73.4 °F - 53.6 °F 50% 29.81 in 10.0 mi SW 15.0 mph 24.2 mph N/A   Clear
11:35 PM 73.4 °F - 53.6 °F 50% 29.82 in 10.0 mi WSW 16.1 mph 23.0 mph N/A   Clear
11:55 PM 73.4 °F - 53.6 °F 50% 29.82 in 10.0 mi WSW 9.2 mph 18.4 mph N/A   Clear